When you browse on this site, cookies collect data to enhance your experience and personalize the content and advertising you see.
Visit our Privacy Policy to learn more. By continuing to use the site, you agree to this use of cookies and data.
  • In Portugal
  • List of Countries
  • For 7 days
  • Water Temperature
  • Satellite Maps
  • Weather Map
  • Weather Widgets
  • user-avatar
    Login

    Hourly Weather Mazari Sharif

    Today, 24 July, Wednesday

    Time Temperature Precipitation Wind Pressure Humidity
    00:00 +26°C° 0 mm 1 mps 650 mmHg 22%
    01:00 +26°C° 0 mm 1 mps 650 mmHg 22%
    02:00 +25°C° 0 mm 1 mps 649 mmHg 22%
    03:00 +25°C° 0 mm 1 mps 649 mmHg 23%
    04:00 +25°C° 0 mm 2 mps 649 mmHg 24%
    05:00 +27°C° 0 mm 2 mps 650 mmHg 21%
    06:00 +30°C° 0 mm 1 mps 651 mmHg 18%
    07:00 +32°C° 0 mm 1 mps 652 mmHg 15%
    08:00 +35°C° 0 mm 2 mps 652 mmHg 14%
    09:00 +36°C° 0 mm 2 mps 652 mmHg 13%
    10:00 +37°C° 0 mm 2 mps 652 mmHg 12%
    11:00 +38°C° 0 mm 3 mps 652 mmHg 11%
    12:00 +40°C° 0 mm 4 mps 652 mmHg 10%
    13:00 +41°C° 0 mm 5 mps 652 mmHg 10%
    14:00 +41°C° 0 mm 5 mps 652 mmHg 10%
    15:00 +41°C° 0 mm 4 mps 651 mmHg 10%
    16:00 +41°C° 0 mm 4 mps 651 mmHg 10%
    17:00 +37°C° 0 mm 3 mps 650 mmHg 11%
    18:00 +34°C° 0 mm 2 mps 650 mmHg 13%
    19:00 +30°C° 0 mm 1 mps 649 mmHg 15%
    20:00 +30°C° 0 mm 1 mps 649 mmHg 16%
    21:00 +30°C° 0 mm 2 mps 649 mmHg 16%
    22:00 +29°C° 0 mm 2 mps 649 mmHg 16%
    23:00 +28°C° 0 mm 2 mps 649 mmHg 17%

    Tomorrow, 25 July, Thursday

    Time Temperature Precipitation Wind Pressure Humidity
    00:00 +28°C° 0 mm 3 mps 648 mmHg 18%
    01:00 +27°C° 0 mm 3 mps 648 mmHg 19%
    02:00 +26°C° 0 mm 3 mps 648 mmHg 21%
    03:00 +26°C° 0 mm 3 mps 648 mmHg 24%
    04:00 +25°C° 0 mm 3 mps 648 mmHg 26%
    05:00 +27°C° 0 mm 3 mps 649 mmHg 24%
    06:00 +28°C° 0 mm 3 mps 650 mmHg 22%
    07:00 +30°C° 0 mm 3 mps 650 mmHg 21%
    08:00 +33°C° 0 mm 4 mps 651 mmHg 19%
    09:00 +34°C° 0 mm 4 mps 651 mmHg 17%
    10:00 +36°C° 0 mm 5 mps 651 mmHg 15%
    11:00 +36°C° 0 mm 5 mps 651 mmHg 14%
    12:00 +37°C° 0 mm 5 mps 651 mmHg 13%
    13:00 +39°C° 0 mm 6 mps 651 mmHg 11%
    14:00 +39°C° 0 mm 5 mps 650 mmHg 11%
    15:00 +39°C° 0 mm 5 mps 650 mmHg 11%
    16:00 +39°C° 0 mm 5 mps 650 mmHg 10%
    17:00 +36°C° 0 mm 4 mps 649 mmHg 11%
    18:00 +34°C° 0 mm 4 mps 649 mmHg 13%
    19:00 +32°C° 0 mm 4 mps 648 mmHg 14%
    20:00 +30°C° 0 mm 4 mps 648 mmHg 15%
    21:00 +29°C° 0 mm 4 mps 648 mmHg 16%
    22:00 +28°C° 0 mm 4 mps 648 mmHg 18%
    23:00 +28°C° 0 mm 4 mps 648 mmHg 18%

    Day after tomorrow, 26 July, Friday

    Time Temperature Precipitation Wind Pressure Humidity
    00:00 +27°C° 0 mm 4 mps 648 mmHg 17%
    01:00 +26°C° 0 mm 4 mps 647 mmHg 17%
    02:00 +26°C° 0 mm 4 mps 647 mmHg 18%
    03:00 +25°C° 0 mm 4 mps 647 mmHg 18%
    04:00 +23°C° 0 mm 4 mps 648 mmHg 19%
    05:00 +26°C° 0 mm 4 mps 648 mmHg 18%
    06:00 +27°C° 0 mm 4 mps 649 mmHg 16%
    07:00 +29°C° 0 mm 4 mps 649 mmHg 15%
    08:00 +30°C° 0 mm 4 mps 650 mmHg 14%
    09:00 +33°C° 0 mm 4 mps 650 mmHg 13%
    10:00 +35°C° 0 mm 5 mps 651 mmHg 11%
    11:00 +36°C° 0 mm 5 mps 650 mmHg 11%
    12:00 +38°C° 0 mm 6 mps 650 mmHg 10%
    13:00 +39°C° 0 mm 6 mps 650 mmHg 9%
    14:00 +39°C° 0 mm 5 mps 650 mmHg 9%
    15:00 +39°C° 0 mm 5 mps 649 mmHg 9%
    16:00 +38°C° 0 mm 4 mps 649 mmHg 9%
    17:00 +36°C° 0 mm 4 mps 649 mmHg 9%
    18:00 +34°C° 0 mm 4 mps 648 mmHg 10%
    19:00 +30°C° 0 mm 3 mps 648 mmHg 11%
    20:00 +30°C° 0 mm 4 mps 648 mmHg 12%
    21:00 +29°C° 0 mm 4 mps 648 mmHg 12%
    22:00 +28°C° 0 mm 4 mps 648 mmHg 12%
    23:00 +27°C° 0 mm 4 mps 648 mmHg 14%

    27 July, Saturday

    Time Temperature Precipitation Wind Pressure Humidity
    00:00 +27°C° 0 mm 4 mps 647 mmHg 16%
    01:00 +26°C° 0 mm 4 mps 647 mmHg 17%
    02:00 +25°C° 0 mm 4 mps 647 mmHg 18%
    03:00 +23°C° 0 mm 4 mps 647 mmHg 20%
    04:00 +24°C° 0 mm 3 mps 647 mmHg 21%
    05:00 +25°C° 0 mm 3 mps 648 mmHg 19%
    06:00 +27°C° 0 mm 3 mps 649 mmHg 17%
    07:00 +29°C° 0 mm 3 mps 650 mmHg 16%
    08:00 +31°C° 0 mm 3 mps 650 mmHg 14%
    09:00 +33°C° 0 mm 4 mps 651 mmHg 13%
    10:00 +35°C° 0 mm 4 mps 651 mmHg 11%
    11:00 +36°C° 0 mm 5 mps 651 mmHg 10%
    12:00 +37°C° 0 mm 5 mps 651 mmHg 10%
    13:00 +39°C° 0 mm 6 mps 651 mmHg 9%
    14:00 +39°C° 0 mm 5 mps 650 mmHg 9%
    15:00 +39°C° 0 mm 5 mps 650 mmHg 9%
    16:00 +38°C° 0 mm 4 mps 650 mmHg 8%
    17:00 +35°C° 0 mm 3 mps 650 mmHg 10%
    18:00 +31°C° 0 mm 2 mps 649 mmHg 12%
    19:00 +29°C° 0 mm 2 mps 648 mmHg 14%
    20:00 +28°C° 0 mm 2 mps 649 mmHg 14%
    21:00 +28°C° 0 mm 3 mps 649 mmHg 15%
    22:00 +28°C° 0 mm 3 mps 649 mmHg 15%
    23:00 +27°C° 0 mm 3 mps 649 mmHg 16%

    28 July, Sunday

    Time Temperature Precipitation Wind Pressure Humidity
    00:00 +26°C° 0 mm 3 mps 649 mmHg 17%
    01:00 +26°C° 0 mm 3 mps 649 mmHg 19%
    02:00 +26°C° 0 mm 3 mps 649 mmHg 19%
    03:00 +25°C° 0 mm 3 mps 649 mmHg 20%
    04:00 +25°C° 0 mm 3 mps 649 mmHg 20%
    05:00 +27°C° 0 mm 3 mps 650 mmHg 18%
    06:00 +29°C° 0 mm 3 mps 650 mmHg 16%
    07:00 +31°C° 0 mm 2 mps 651 mmHg 14%
    08:00 +34°C° 0 mm 2 mps 651 mmHg 12%
    09:00 +35°C° 0 mm 2 mps 651 mmHg 11%
    10:00 +37°C° 0 mm 2 mps 652 mmHg 10%
    11:00 +38°C° 0 mm 3 mps 652 mmHg 9%
    12:00 +39°C° 0 mm 3 mps 651 mmHg 9%
    13:00 +41°C° 0 mm 4 mps 651 mmHg 8%
    14:00 +41°C° 0 mm 4 mps 651 mmHg 8%
    15:00 +41°C° 0 mm 4 mps 651 mmHg 8%
    16:00 +40°C° 0 mm 4 mps 650 mmHg 8%
    17:00 +36°C° 0 mm 3 mps 650 mmHg 10%
    18:00 +32°C° 0 mm 2 mps 649 mmHg 12%
    19:00 +29°C° 0 mm 1 mps 649 mmHg 13%
    20:00 +29°C° 0 mm 1 mps 649 mmHg 14%
    21:00 +28°C° 0 mm 2 mps 649 mmHg 14%
    22:00 +28°C° 0 mm 2 mps 649 mmHg 14%
    23:00 +28°C° 0 mm 2 mps 649 mmHg 14%

    29 July, Monday

    Time Temperature Precipitation Wind Pressure Humidity
    00:00 +27°C° 0 mm 2 mps 649 mmHg 15%
    01:00 +27°C° 0 mm 2 mps 649 mmHg 15%
    02:00 +26°C° 0 mm 2 mps 649 mmHg 16%
    03:00 +26°C° 0 mm 2 mps 649 mmHg 18%
    04:00 +25°C° 0 mm 2 mps 649 mmHg 19%
    05:00 +28°C° 0 mm 2 mps 650 mmHg 17%
    06:00 +30°C° 0 mm 2 mps 651 mmHg 15%
    07:00 +33°C° 0 mm 1 mps 652 mmHg 13%
    08:00 +35°C° 0 mm 2 mps 652 mmHg 12%
    09:00 +37°C° 0 mm 2 mps 652 mmHg 11%
    10:00 +38°C° 0 mm 2 mps 652 mmHg 10%
    11:00 +39°C° 0 mm 3 mps 652 mmHg 10%
    12:00 +40°C° 0 mm 3 mps 652 mmHg 9%
    13:00 +42°C° 0 mm 4 mps 652 mmHg 8%
    14:00 +42°C° 0 mm 4 mps 652 mmHg 8%
    15:00 +42°C° 0 mm 5 mps 652 mmHg 8%
    16:00 +42°C° 0 mm 5 mps 651 mmHg 8%
    17:00 +38°C° 0 mm 4 mps 651 mmHg 10%
    18:00 +35°C° 0 mm 2 mps 650 mmHg 11%
    19:00 +30°C° 0 mm 1 mps 649 mmHg 13%
    20:00 +30°C° 0 mm 1 mps 649 mmHg 14%
    21:00 +29°C° 0 mm 1 mps 649 mmHg 15%
    22:00 +28°C° 0 mm 1 mps 650 mmHg 16%
    23:00 +28°C° 0 mm 1 mps 649 mmHg 16%
    Show more